Weather in Kriushi

Russia / Ulyanovsk Oblast     54°06′16″N   48°31′54″E
temp.,
°C
wind,
m/s
gust,
m/s
humid.,
%
clouds,
%
prec.,
mm/h
press.,
hPa
HPBL,
m
19 april, mon
mon1901:00+5ene4107660 0.0 1022357
04:00+3ne497596 0.0 1023253
07:00+3ne51080100 0.0 1023436
10:00+5ene71061100 0.0 1024661
13:00+7ene71057100 0.0 10231122
16:00+7e71057100 0.0 10241160
19:00+5e7117080 0.0 1025882
22:00+4e5137296 0.0 1026888
20 april, tue
tue2001:00+4e5116879 0.0 1026750
04:00+2e5127111 0.0 1027523
07:00+1ese714594 0.0 1028593
10:00+4ese812460 0.0 1029765
13:00+7ese810401 0.0 10281044
16:00+8ese7103721 0.0 10271209
19:00+7ese61142100 0.0 1026871
22:00+5ese71446100 0.0 1026701
21 april, wed
wed2101:00+3se7165095 0.0 1025626
04:00+2se81755100 0.0 1024628
07:00+2se91858100 0.1 1023670
10:00+1se92079100 0.5 1022637
13:00+1se92089100 0.6 1023686
16:00+1sse81892100 2.1 1023670
19:00+1sse71694100 1.8 1024622
22:00+1sse61496100 4.1 1024533
22 april, thu
thu2201:00+2s51196100 0.1 1024427
04:00+3sse51197100 0.1 1024438
07:00+3sse51197100 0.0 1024435
10:00+4s41096100 0.0 1025400
13:00+5s4894100 0.1 1026352
16:00+6sse4792100 0.1 1026415
19:00+6sse3796100 0.0 1028355
22:00+5sse4898100 0.0 1028243
23 april, fri
fri2301:00+5s3697100 0.0 1027262
04:00+4sse2397100 0.0 1028129
07:00+5sse2496100 0.0 1028209
10:00+6se2387100 0.0 1027404
13:00+7se348297 0.0 1027621
16:00+8ese447866 0.1 1025633
19:00+6ese3485100 0.0 1025414
22:00+4ese1192100 0.0 102315